Hourly Data Report for April 04, 2020

TORONTO CITY
ONTARIO
Current Station Operator: ECCC - MSC

43°40'00.000" N
79°24'00.000" W
112.50 m
6158355
71508
XTO

Download Data

Hourly Data (April 2020)
Hourly Data Report for April 4, 2020
TIME
LST
Temp Definition
°C
Dew Point Definition
°C
Rel Hum Definition
%
Precip. Amount Definition
mm

Wind Dir Definition
10's deg

Wind Spd Definition
km/h
Visibility Definition
km
Stn Press Definition
kPa
Hmdx Definition


Wind Chill Definition


Weather Definition


00:00 7.1 3.8 79 0.0       100.31     LegendNANA
01:00 7.1 4.1 81 0.0       100.31     LegendNANA
02:00 7.2 4.3 82 0.0       100.29     LegendNANA
03:00 7.3 4.5 82 0.0       100.29     LegendNANA
04:00 7.4 4.5 82 0.0       100.28     LegendNANA
05:00 7.4 4.6 82 0.0       100.30     LegendNANA
06:00 7.3 4.5 83 0.0       100.34     LegendNANA
07:00 7.5 4.6 82 0.0       100.41     LegendNANA
08:00 7.9 4.7 81 0.0       100.43     LegendNANA
09:00 8.1 4.6 79 0.0       100.47     LegendNANA
10:00 9.4 4.8 73 0.0       100.47     LegendNANA
11:00 9.4 4.6 72 0.0       100.43     LegendNANA
12:00 10.0 4.2 67 0.0       100.38     LegendNANA
13:00 10.0 3.9 66 0.0       100.38     LegendNANA
14:00 9.6 4.3 70 0.0       100.36     LegendNANA
15:00 9.7 4.3 69 0.0       100.28     LegendNANA
16:00 10.5 3.9 64 0.0       100.25     LegendNANA
17:00 10.2 3.6 63 0.0       100.24     LegendNANA
18:00 9.6 3.5 66 0.0       100.26     LegendNANA
19:00 9.3 3.6 68 0.0       100.23     LegendNANA
20:00 8.7 3.5 69 0.0       100.27     LegendNANA
21:00 8.6 3.7 72 0.0       100.26     LegendNANA
22:00 8.2 3.8 74 0.0       100.26     LegendNANA
23:00 7.8 4.3 78 0.0       100.23     LegendNANA

Notes on Data Quality.

Legend

  • E = Estimated
  • M = Missing
  • NA = Not Available*
  • [empty] = Indicates an unobserved value
Date modified: